This is the latest recevied weather packets stored in our database for station/object WA0LM. If no packets are shown the sender has not sent any weather packets the latest 1 day(s).
| Time | Temp. | Humidity | Pressure | Rain* | Wind** | Luminosity | Snow |
|---|---|---|---|---|---|---|---|
| 1778044275 | 3.33° C | 60% | 1012.9 hPa | 0 mm | - | 0 W/m² | - |
| 1778043670 | 3.33° C | 65% | 1012.6 hPa | 0 mm | - | 0 W/m² | - |
| 1778043367 | 3.33° C | 63% | 1012.7 hPa | 0 mm | - | 0 W/m² | - |
| 1778043064 | 3.33° C | 67% | 1012.6 hPa | 0 mm | - | 0 W/m² | - |
| 1778042762 | 2.78° C | 65% | 1012.2 hPa | 0 mm | - | 0 W/m² | - |
| 1778042458 | 2.78° C | 63% | 1012.6 hPa | 0 mm | - | 0 W/m² | - |
| 1778042155 | 2.78° C | 63% | 1012.3 hPa | 0 mm | - | 0 W/m² | - |
| 1778041854 | 2.78° C | 65% | 1012.6 hPa | 0 mm | - | 0 W/m² | - |
| 1778041250 | 2.78° C | 65% | 1012.3 hPa | 0 mm | - | 0 W/m² | - |
| 1778040038 | 2.78° C | 62% | 1012.2 hPa | 0 mm | - | 0 W/m² | - |
| 1778039432 | 2.78° C | 62% | 1012.2 hPa | 0 mm | - | 0 W/m² | - |
| 1778039130 | 2.78° C | 65% | 1012.1 hPa | 0 mm | - | 0 W/m² | - |
| 1778038826 | 2.78° C | 64% | 1012.2 hPa | 0 mm | - | 0 W/m² | - |
| 1778038524 | 2.78° C | 61% | 1012 hPa | 0 mm | - | 0 W/m² | - |
| 1778038221 | 2.78° C | 64% | 1012.4 hPa | 0 mm | - | 0 W/m² | - |
| 1778037918 | 2.78° C | 63% | 1012.3 hPa | 0 mm | - | 0 W/m² | - |
| 1778037009 | 2.78° C | 64% | 1012.3 hPa | 0 mm | - | 0 W/m² | - |
| 1778036101 | 2.78° C | 61% | 1012.4 hPa | 0 mm | - | 0 W/m² | - |
| 1778035494 | 2.78° C | 60% | 1012.2 hPa | 0 mm | - | 0 W/m² | - |
| 1778035190 | 3.33° C | 62% | 1012.3 hPa | 0 mm | - | 0 W/m² | - |
| 1778034887 | 3.33° C | 61% | 1012.1 hPa | 0 mm | - | 0 W/m² | - |
| 1778034583 | 3.33° C | 62% | 1012.1 hPa | 0 mm | - | 0 W/m² | - |
| 1778033979 | 3.33° C | 59% | 1012.1 hPa | 0 mm | - | 0 W/m² | - |
| 1778033676 | 3.33° C | 63% | 1011.9 hPa | 0 mm | - | 0 W/m² | - |
| 1778033373 | 3.89° C | 62% | 1012 hPa | 0 mm | - | 0 W/m² | - |
* Rain latest hour (hover to see other rain measurements)
** Current wind speed in m/s (hover to see current wind gust speed)